Location: Bergnerzell
(49.1816°N, 10.2565°E)
Time: 03:39:42
(UTC+00:00)

Cosmos 1408 - Pass Details

Date: 13 August 2024
Orbit: 315 x 327 km, 82.5° (Epoch: 11 September)

Event Time Altitude Azimuth Distance (km) Brightness Sun altitude
Rises 01:24:06 0° 348° (NNW) 2,093 6.5 -20.9°
Reaches altitude 10° 01:26:02 10° 347° (NNW) 1,245 5.2 -20.8°
Enters shadow 01:27:28 27° 341° (NNW) 656 3.6 -20.7°
